FW5933 Weather Reports


time (UTC)temp
C
wind
direction
speed
KPH
gust
KPH
rain 1hr
cm
rain 24hr
cm
rain mn
cm
humidity
%
barometer
mb
20260506031253 20 240 0.0 0.0 0.00 0.00 0.00 57 1017.3
20260506030751 20 240 0.0 0.0 0.00 0.00 0.00 57 1017.3
20260506030248 19 232 0.0 0.0 0.00 0.00 0.00 58 1017.2
20260506025745 18 261 0.0 0.0 0.00 0.00 0.00 63 1017.3
20260506025241 18 263 0.0 0.0 0.00 0.00 0.00 65 1017.0
20260505162738 23 167 6.4 9.7 0.00 0.00 0.00 41 1019.3
20260505162235 23 167 6.4 9.7 0.00 0.00 0.00 41 1019.3
20260505161732 23 256 9.7 12.9 0.00 0.00 0.00 41 1019.3
20260505161230 23 186 6.4 9.7 0.00 0.00 0.00 40 1019.4
20260505160727 24 277 8.0 11.3 0.00 0.00 0.00 42 1019.4
20260505160225 23 264 4.8 4.8 0.00 0.00 0.00 42 1019.4
20260505153203 22 127 0.0 0.0 0.00 0.00 0.00 53 1019.0
20260505152700 22 89 1.6 1.6 0.00 0.00 0.00 55 1019.4
20260505152156 22 182 3.2 3.2 0.00 0.00 0.00 51 1019.5
20260505151651 21 224 1.6 1.6 0.00 0.00 0.00 48 1019.6
20260505151149 21 84 0.0 1.6 0.00 0.00 0.00 58 1019.4
20260505150645 21 351 0.0 0.0 0.00 0.00 0.00 58 1019.5
20260505150142 21 239 1.6 1.6 0.00 0.00 0.00 57 1019.5
20260505140611 17 10 0.0 0.0 0.00 0.00 0.00 68 1019.8
20260505140108 17 0 0.0 0.0 0.00 0.00 0.00 70 1019.7
20260505125024 15 17 0.0 0.0 0.00 0.00 0.00 74 1018.8
20260505124521 15 171 0.0 0.0 0.00 0.00 0.00 71 1018.8
20260505124017 15 241 0.0 0.0 0.00 0.00 0.00 71 1018.8
20260505123514 14 200 0.0 0.0 0.00 0.00 0.00 74 1018.7
20260505123010 13 50 0.0 0.0 0.00 0.00 0.00 77 1018.6
20260505122507 12 262 0.0 0.0 0.00 0.00 0.00 79 1018.8
20260505122004 12 5 0.0 0.0 0.00 0.00 0.00 81 1018.7
20260505121501 12 5 0.0 0.0 0.00 0.00 0.00 81 1018.9
20260505120957 11 212 0.0 0.0 0.00 0.00 0.00 83 1018.9
20260505120453 11 312 0.0 0.0 0.00 0.00 0.00 84 1018.7
20260505115952 10 276 0.0 0.0 0.00 0.00 0.00 87 1018.6
20260505115449 10 275 0.0 0.0 0.00 0.00 0.00 88 1018.5
20260505114947 10 275 0.0 0.0 0.00 0.00 0.00 88 1018.7
20260505114443 10 275 0.0 0.0 0.00 0.00 0.00 89 1018.6
20260505113940 10 275 0.0 0.0 0.00 0.00 0.00 89 1018.4
20260505113436 10 275 0.0 0.0 0.00 0.00 0.00 89 1018.4
20260505112932 10 274 0.0 0.0 0.00 0.00 0.00 89 1018.4
20260505112430 9 274 0.0 0.0 0.00 0.00 0.00 89 1018.0
20260505111926 9 274 0.0 0.0 0.00 0.00 0.00 89 1018.1
20260505111420 9 259 0.0 0.0 0.00 0.00 0.00 89 1018.0
20260505110917 9 259 0.0 0.0 0.00 0.00 0.00 89 1018.1
20260505110414 9 276 0.0 0.0 0.00 0.00 0.00 88 1017.9
20260505101845 10 269 0.0 0.0 0.00 0.00 0.00 84 1018.0
20260505101339 10 342 0.0 0.0 0.00 0.00 0.00 84 1018.3
20260505100836 10 342 0.0 0.0 0.00 0.00 0.00 82 1018.3
20260505100333 10 342 0.0 0.0 0.00 0.00 0.00 82 1018.1
20260505095828 11 342 0.0 0.0 0.00 0.00 0.00 80 1018.0
20260505095326 11 73 0.0 0.0 0.00 0.00 0.00 79 1018.1
20260505094822 11 257 0.0 0.0 0.00 0.00 0.00 78 1018.1
20260505094319 11 107 0.0 0.0 0.00 0.00 0.00 78 1017.9
20260505093814 15 76 1.6 1.6 0.00 0.00 0.00 69 1017.8
20260505093312 15 257 1.6 3.2 0.00 0.00 0.00 59 1017.8
20260505092808 15 242 0.0 0.0 0.00 0.00 0.00 60 1017.8
20260505092307 15 248 3.2 3.2 0.00 0.00 0.00 59 1017.5
20260505091804 15 212 1.6 1.6 0.00 0.00 0.00 60 1017.8
20260505091302 15 247 0.0 1.6 0.00 0.00 0.00 59 1017.8
20260505090800 15 256 1.6 1.6 0.00 0.00 0.00 61 1017.7
20260505090258 15 228 0.0 1.6 0.00 0.00 0.00 60 1018.0
20260505085755 15 231 3.2 3.2 0.00 0.00 0.00 61 1017.9
20260505085253 15 227 0.0 0.0 0.00 0.00 0.00 61 1017.9
20260505084750 15 242 0.0 0.0 0.00 0.00 0.00 60 1017.9
20260505084249 15 252 0.0 0.0 0.00 0.00 0.00 60 1017.8
20260505083745 15 241 0.0 0.0 0.00 0.00 0.00 60 1017.7
20260505083242 15 235 0.0 0.0 0.00 0.00 0.00 61 1017.8
20260505082739 15 258 1.6 4.8 0.00 0.00 0.00 60 1017.8
20260505082236 15 248 0.0 1.6 0.00 0.00 0.00 61 1018.0
20260505081732 15 219 1.6 1.6 0.00 0.00 0.00 61 1018.0
20260505081229 15 234 0.0 0.0 0.00 0.00 0.00 62 1018.0
20260505080726 15 244 0.0 1.6 0.00 0.00 0.00 61 1018.0
20260505080221 15 232 3.2 3.2 0.00 0.00 0.00 60 1018.0
20260505075717 15 237 0.0 0.0 0.00 0.00 0.00 61 1017.9
20260505075215 15 247 0.0 0.0 0.00 0.00 0.00 61 1017.8
20260505074712 15 240 0.0 0.0 0.00 0.00 0.00 61 1017.9
20260505074209 15 141 0.0 0.0 0.00 0.00 0.00 61 1017.9
20260505073707 15 251 0.0 0.0 0.00 0.00 0.00 62 1017.8
20260505073204 15 245 0.0 0.0 0.00 0.00 0.00 61 1017.9
20260505072700 13 238 0.0 0.0 0.00 0.00 0.00 66 1017.9
20260505072156 12 253 0.0 0.0 0.00 0.00 0.00 72 1017.7
20260505071652 12 254 0.0 0.0 0.00 0.00 0.00 76 1017.9
20260505071150 11 254 0.0 0.0 0.00 0.00 0.00 78 1017.7
20260505070647 11 254 0.0 0.0 0.00 0.00 0.00 81 1018.0
20260505070143 11 254 0.0 0.0 0.00 0.00 0.00 82 1017.9
20260505065639 11 254 0.0 0.0 0.00 0.00 0.00 81 1017.8
20260505065136 11 254 0.0 0.0 0.00 0.00 0.00 83 1018.1
20260505064633 11 254 0.0 0.0 0.00 0.00 0.00 83 1017.8
20260505064131 11 254 0.0 0.0 0.00 0.00 0.00 83 1017.9
20260505063628 11 254 0.0 0.0 0.00 0.00 0.00 82 1017.8
20260505063124 11 254 0.0 0.0 0.00 0.00 0.00 82 1017.8
20260505062621 11 220 0.0 0.0 0.00 0.00 0.00 81 1018.0
20260505062118 12 220 0.0 0.0 0.00 0.00 0.00 79 1018.3
20260505061615 12 220 0.0 0.0 0.00 0.00 0.00 78 1018.3
20260505061113 12 220 0.0 0.0 0.00 0.00 0.00 78 1018.4
20260505060610 12 220 0.0 0.0 0.00 0.00 0.00 76 1018.0
20260505060107 12 220 0.0 0.0 0.00 0.00 0.00 74 1018.4